Year,Month,Day,Hour,Minute,Value (Times are PST for temperature in C)
2009,08,13,00,00,10.80
2009,08,13,00,01,10.80
2009,08,13,00,02,10.80
2009,08,13,00,03,10.80
2009,08,13,00,04,10.70
2009,08,13,00,05,10.70
2009,08,13,00,06,10.70
2009,08,13,00,07,10.70
2009,08,13,00,08,10.70
2009,08,13,00,09,10.70
2009,08,13,00,10,10.70
2009,08,13,00,11,10.70
2009,08,13,00,12,10.60
2009,08,13,00,13,10.60
2009,08,13,00,14,10.60
2009,08,13,00,15,10.60
2009,08,13,00,16,10.60
2009,08,13,00,17,10.60
2009,08,13,00,18,10.60
2009,08,13,00,19,10.60
2009,08,13,00,20,10.60
2009,08,13,00,21,10.60
2009,08,13,00,22,10.50
2009,08,13,00,23,10.50
2009,08,13,00,24,10.50
2009,08,13,00,25,10.50
2009,08,13,00,26,10.40
2009,08,13,00,27,10.40
2009,08,13,00,28,10.40
2009,08,13,00,29,10.40
2009,08,13,00,30,10.40
2009,08,13,00,31,10.40
2009,08,13,00,32,10.40
2009,08,13,00,33,10.40
2009,08,13,00,34,10.40
2009,08,13,00,35,10.40
2009,08,13,00,36,10.40
2009,08,13,00,37,10.30
2009,08,13,00,38,10.30
2009,08,13,00,39,10.30
2009,08,13,00,40,10.30
2009,08,13,00,41,10.30
2009,08,13,00,42,10.20
2009,08,13,00,43,10.20
2009,08,13,00,44,10.20
2009,08,13,00,45,10.20
2009,08,13,00,46,10.20
2009,08,13,00,47,10.20
2009,08,13,00,48,10.10
2009,08,13,00,49,10.10
2009,08,13,00,50,10.10
2009,08,13,00,51,10.10
2009,08,13,00,52,10.00
2009,08,13,00,53,10.00
2009,08,13,00,54,10.00
2009,08,13,00,55,10.00
2009,08,13,00,56,9.90
2009,08,13,00,57,9.90
2009,08,13,00,58,9.90
2009,08,13,00,59,9.90
2009,08,13,01,00,9.80
2009,08,13,01,01,9.80
2009,08,13,01,02,9.80
2009,08,13,01,03,9.80
2009,08,13,01,04,9.80
2009,08,13,01,05,9.80
2009,08,13,01,06,9.70
2009,08,13,01,07,9.70
2009,08,13,01,08,9.70
2009,08,13,01,09,9.70
2009,08,13,01,10,9.70
2009,08,13,01,11,9.70
2009,08,13,01,12,9.70
2009,08,13,01,13,9.70
2009,08,13,01,14,9.70
2009,08,13,01,25,9.70
2009,08,13,01,26,9.70
2009,08,13,01,27,9.70
2009,08,13,01,28,9.70
2009,08,13,01,29,9.70
2009,08,13,01,30,9.70
2009,08,13,01,31,9.70
2009,08,13,01,32,9.70
2009,08,13,01,33,9.70
2009,08,13,01,34,9.70
2009,08,13,01,35,9.70
2009,08,13,01,36,9.70
2009,08,13,01,37,9.70
2009,08,13,01,38,9.80
2009,08,13,01,39,9.80
2009,08,13,01,40,9.80
2009,08,13,01,41,9.80
2009,08,13,01,42,9.80
2009,08,13,01,43,9.80
2009,08,13,01,44,9.80
2009,08,13,01,45,9.80
2009,08,13,01,46,9.80
2009,08,13,01,47,9.70
2009,08,13,01,48,9.70
2009,08,13,01,49,9.70
2009,08,13,01,50,9.70
2009,08,13,01,51,9.70
2009,08,13,01,52,9.70
2009,08,13,01,53,9.70
2009,08,13,01,54,9.70
2009,08,13,01,55,9.70
2009,08,13,01,56,9.70
2009,08,13,01,57,9.70
2009,08,13,01,58,9.70
2009,08,13,01,59,9.70
2009,08,13,02,00,9.60
2009,08,13,02,01,9.60
2009,08,13,02,02,9.70
2009,08,13,02,03,9.70
2009,08,13,02,04,9.70
2009,08,13,02,05,9.60
2009,08,13,02,06,9.60
2009,08,13,02,07,9.60
2009,08,13,02,08,9.60
2009,08,13,02,09,9.60
2009,08,13,02,10,9.60
2009,08,13,02,11,9.60
2009,08,13,02,12,9.60
2009,08,13,02,13,9.60
2009,08,13,02,14,9.60
2009,08,13,02,15,9.70
2009,08,13,02,16,9.70
2009,08,13,02,17,9.70
2009,08,13,02,18,9.70
2009,08,13,02,19,9.70
2009,08,13,02,20,9.70
2009,08,13,02,21,9.70
2009,08,13,02,22,9.70
2009,08,13,02,23,9.60
2009,08,13,02,24,9.60
2009,08,13,02,25,9.60
2009,08,13,02,26,9.60
2009,08,13,02,27,9.60
2009,08,13,02,28,9.60
2009,08,13,02,29,9.60
2009,08,13,02,30,9.60
2009,08,13,02,31,9.60
2009,08,13,02,32,9.60
2009,08,13,02,33,9.60
2009,08,13,02,34,9.60
2009,08,13,02,35,9.60
2009,08,13,02,36,9.60
2009,08,13,02,37,9.70
2009,08,13,02,38,9.70
2009,08,13,02,39,9.70
2009,08,13,02,40,9.70
2009,08,13,02,41,9.70
2009,08,13,02,42,9.70
2009,08,13,02,43,9.70
2009,08,13,02,44,9.70
2009,08,13,02,45,9.70
2009,08,13,02,46,9.70
2009,08,13,02,47,9.70
2009,08,13,02,48,9.70
2009,08,13,02,49,9.70
2009,08,13,02,50,9.70
2009,08,13,02,51,9.70
2009,08,13,02,52,9.70
2009,08,13,02,53,9.70
2009,08,13,02,54,9.70
2009,08,13,02,55,9.70
2009,08,13,02,56,9.70
2009,08,13,02,57,9.70
2009,08,13,02,58,9.80
2009,08,13,02,59,9.80
2009,08,13,03,00,9.80
2009,08,13,03,01,9.80
2009,08,13,03,02,9.80
2009,08,13,03,03,9.80
2009,08,13,03,04,9.80
2009,08,13,03,05,9.80
2009,08,13,03,06,9.80
2009,08,13,03,07,9.80
2009,08,13,03,08,9.80
2009,08,13,03,09,9.80
2009,08,13,03,10,9.80
2009,08,13,03,11,9.80
2009,08,13,03,12,9.80
2009,08,13,03,13,9.80
2009,08,13,03,14,9.80
2009,08,13,03,15,9.80
2009,08,13,03,16,9.80
2009,08,13,03,17,9.80
2009,08,13,03,18,9.80
2009,08,13,03,19,9.80
2009,08,13,03,20,9.80
2009,08,13,03,21,9.80
2009,08,13,03,22,9.80
2009,08,13,03,23,9.80
2009,08,13,03,24,9.80
2009,08,13,03,25,9.80
2009,08,13,03,26,9.80
2009,08,13,03,27,9.80
2009,08,13,03,28,9.80
2009,08,13,03,29,9.80
2009,08,13,03,30,9.80
2009,08,13,03,31,9.80
2009,08,13,03,32,9.80
2009,08,13,03,33,9.80
2009,08,13,03,34,9.80
2009,08,13,03,35,9.80
2009,08,13,03,36,9.80
2009,08,13,03,37,9.70
2009,08,13,03,38,9.70
2009,08,13,03,39,9.70
2009,08,13,03,40,9.70
2009,08,13,03,41,9.70
2009,08,13,03,42,9.80
2009,08,13,03,43,9.70
2009,08,13,03,44,9.80
2009,08,13,03,45,9.80
2009,08,13,03,46,9.80
2009,08,13,03,47,9.80
2009,08,13,03,48,9.80
2009,08,13,03,49,9.80
2009,08,13,03,50,9.80
2009,08,13,03,51,9.80
2009,08,13,03,52,9.80
2009,08,13,03,53,9.80
2009,08,13,03,54,9.80
2009,08,13,03,55,9.80
2009,08,13,03,56,9.80
2009,08,13,03,57,9.80
2009,08,13,03,58,9.80
2009,08,13,03,59,9.80
2009,08,13,04,00,9.80
2009,08,13,04,01,9.80
2009,08,13,04,02,9.80
2009,08,13,04,03,9.80
2009,08,13,04,04,9.90
2009,08,13,04,15,10.00
2009,08,13,04,18,10.10
2009,08,13,04,29,10.20
2009,08,13,04,37,10.20
2009,08,13,04,46,10.20
2009,08,13,04,57,10.20
2009,08,13,05,06,10.30
2009,08,13,05,10,10.20
2009,08,13,05,11,10.20
2009,08,13,05,12,10.20
2009,08,13,05,13,10.20
2009,08,13,05,14,10.20
2009,08,13,05,15,10.20
2009,08,13,05,16,10.20
2009,08,13,05,17,10.20
2009,08,13,05,18,10.20
2009,08,13,05,19,10.20
2009,08,13,05,20,10.20
2009,08,13,05,21,10.20
2009,08,13,05,22,10.20
2009,08,13,05,23,10.20
2009,08,13,05,24,10.20
2009,08,13,05,25,10.20
2009,08,13,05,26,10.20
2009,08,13,05,27,10.20
2009,08,13,05,28,10.20
2009,08,13,05,29,10.20
2009,08,13,05,30,10.20
2009,08,13,05,31,10.20
2009,08,13,05,32,10.20
2009,08,13,05,33,10.20
2009,08,13,05,34,10.20
2009,08,13,05,35,10.20
2009,08,13,05,36,10.20
2009,08,13,05,37,10.20
2009,08,13,05,38,10.20
2009,08,13,05,39,10.20
2009,08,13,05,40,10.20
2009,08,13,05,41,10.20
2009,08,13,05,42,10.20
2009,08,13,05,43,10.20
2009,08,13,05,44,10.20
2009,08,13,05,45,10.20
2009,08,13,05,46,10.20
2009,08,13,05,47,10.20
2009,08,13,05,48,10.20
2009,08,13,05,49,10.20
2009,08,13,05,50,10.20
2009,08,13,05,51,10.20
2009,08,13,05,52,10.20
2009,08,13,05,53,10.20
2009,08,13,05,54,10.20
2009,08,13,05,55,10.20
2009,08,13,05,56,10.20
2009,08,13,05,57,10.20
2009,08,13,05,58,10.20
2009,08,13,05,59,10.20
2009,08,13,06,00,10.20
2009,08,13,06,01,10.20
2009,08,13,06,02,10.20
2009,08,13,06,03,10.20
2009,08,13,06,04,10.20
2009,08,13,06,05,10.20
2009,08,13,06,06,10.20
2009,08,13,06,07,10.20
2009,08,13,06,08,10.20
2009,08,13,06,09,10.20
2009,08,13,06,10,10.30
2009,08,13,06,11,10.30
2009,08,13,06,12,10.30
2009,08,13,06,13,10.30
2009,08,13,06,14,10.30
2009,08,13,06,15,10.30
2009,08,13,06,16,10.30
2009,08,13,06,17,10.30
2009,08,13,06,18,10.30
2009,08,13,06,19,10.30
2009,08,13,06,20,10.30
2009,08,13,06,21,10.30
2009,08,13,06,22,10.30
2009,08,13,06,23,10.40
2009,08,13,06,24,10.30
2009,08,13,06,25,10.40
2009,08,13,06,26,10.40
2009,08,13,06,27,10.40
2009,08,13,06,28,10.40
2009,08,13,06,29,10.40
2009,08,13,06,30,10.40
2009,08,13,06,31,10.40
2009,08,13,06,32,10.40
2009,08,13,06,33,10.40
2009,08,13,06,34,10.40
2009,08,13,06,35,10.40
2009,08,13,06,36,10.40
2009,08,13,06,37,10.40
2009,08,13,06,38,10.50
2009,08,13,06,39,10.50
2009,08,13,06,40,10.50
2009,08,13,06,41,10.50
2009,08,13,06,42,10.50
2009,08,13,06,43,10.50
2009,08,13,06,44,10.50
2009,08,13,06,45,10.50
2009,08,13,06,46,10.50
2009,08,13,06,47,10.50
2009,08,13,06,48,10.60
2009,08,13,06,49,10.60
2009,08,13,06,50,10.60
2009,08,13,06,51,10.60
2009,08,13,06,52,10.60
2009,08,13,06,53,10.60
2009,08,13,06,54,10.60
2009,08,13,06,55,10.60
2009,08,13,06,56,10.60
2009,08,13,06,57,10.60
2009,08,13,06,58,10.60
2009,08,13,06,59,10.60
2009,08,13,07,00,10.60
2009,08,13,07,01,10.70
2009,08,13,07,02,10.70
2009,08,13,07,03,10.70
2009,08,13,07,04,10.70
2009,08,13,07,05,10.70
2009,08,13,07,06,10.70
2009,08,13,07,07,10.70
2009,08,13,07,08,10.70
2009,08,13,07,09,10.70
2009,08,13,07,10,10.80
2009,08,13,07,11,10.80
2009,08,13,07,12,10.80
2009,08,13,07,13,10.80
2009,08,13,07,14,10.80
2009,08,13,07,15,10.80
2009,08,13,07,16,10.80
2009,08,13,07,17,10.80
2009,08,13,07,18,10.80
2009,08,13,07,19,10.90
2009,08,13,07,20,10.90
2009,08,13,07,21,10.90
2009,08,13,07,22,10.90
2009,08,13,07,23,11.00
2009,08,13,07,24,11.00
2009,08,13,07,25,11.10
2009,08,13,07,26,11.10
2009,08,13,07,27,11.10
2009,08,13,07,28,11.20
2009,08,13,07,29,11.20
2009,08,13,07,30,11.20
2009,08,13,07,31,11.30
2009,08,13,07,32,11.30
2009,08,13,07,33,11.30
2009,08,13,07,34,11.40
2009,08,13,07,35,11.40
2009,08,13,07,36,11.40
2009,08,13,07,37,11.50
2009,08,13,07,38,11.50
2009,08,13,07,39,11.60
2009,08,13,07,40,11.60
2009,08,13,07,41,11.60
2009,08,13,07,42,11.70
2009,08,13,07,43,11.70
2009,08,13,07,44,11.80
2009,08,13,07,45,11.80
2009,08,13,07,46,11.80
2009,08,13,07,47,11.80
2009,08,13,07,48,11.90
2009,08,13,07,49,11.90
2009,08,13,07,50,11.90
2009,08,13,07,51,12.00
2009,08,13,07,52,12.00
2009,08,13,07,53,12.10
2009,08,13,07,54,12.20
2009,08,13,07,55,12.20
2009,08,13,07,56,12.30
2009,08,13,07,57,12.40
2009,08,13,07,58,12.40
2009,08,13,07,59,12.50
2009,08,13,08,00,12.60
2009,08,13,08,01,12.70
2009,08,13,08,02,12.70
2009,08,13,08,03,12.80
2009,08,13,08,04,12.80
2009,08,13,08,05,12.90
2009,08,13,08,06,12.90
2009,08,13,08,07,13.00
2009,08,13,08,08,13.00
2009,08,13,08,09,13.10
2009,08,13,08,10,13.10
2009,08,13,08,11,13.20
2009,08,13,08,12,13.20
2009,08,13,08,13,13.20
2009,08,13,08,14,13.20
2009,08,13,08,15,13.20
2009,08,13,08,16,13.30
2009,08,13,08,17,13.30
2009,08,13,08,18,13.30
2009,08,13,08,19,13.30
2009,08,13,08,20,13.40
2009,08,13,08,21,13.40
2009,08,13,08,22,13.40
2009,08,13,08,23,13.50
2009,08,13,08,24,13.50
2009,08,13,08,25,13.50
2009,08,13,08,26,13.60
2009,08,13,08,27,13.60
2009,08,13,08,28,13.70
2009,08,13,08,29,13.80
2009,08,13,08,30,13.80
2009,08,13,08,31,13.90
2009,08,13,08,32,13.90
2009,08,13,08,33,14.00
2009,08,13,08,34,14.10
2009,08,13,08,35,14.10
2009,08,13,08,36,14.20
2009,08,13,08,37,14.20
2009,08,13,08,38,14.30
2009,08,13,08,39,14.30
2009,08,13,08,40,14.30
2009,08,13,08,41,14.40
2009,08,13,08,42,14.40
2009,08,13,08,43,14.40
2009,08,13,08,44,14.40
2009,08,13,08,45,14.50
2009,08,13,08,46,14.50
2009,08,13,08,47,14.60
2009,08,13,08,48,14.60
2009,08,13,08,49,14.60
2009,08,13,08,50,14.60
2009,08,13,08,51,14.70
2009,08,13,08,52,14.70
2009,08,13,08,53,14.70
2009,08,13,08,54,14.70
2009,08,13,08,55,14.70
2009,08,13,08,56,14.70
2009,08,13,08,57,14.70
2009,08,13,08,58,14.70
2009,08,13,08,59,14.70
2009,08,13,09,00,14.70
2009,08,13,09,01,14.70
2009,08,13,09,02,14.70
2009,08,13,09,03,14.70
2009,08,13,09,04,14.70
2009,08,13,09,05,14.70
2009,08,13,09,06,14.80
2009,08,13,09,07,14.80
2009,08,13,09,08,14.80
2009,08,13,09,09,15.00
2009,08,13,09,10,15.00
2009,08,13,09,11,15.00
2009,08,13,09,12,15.00
2009,08,13,09,13,15.00
2009,08,13,09,14,15.00
2009,08,13,09,15,15.00
2009,08,13,09,16,15.00
2009,08,13,09,17,15.00
2009,08,13,09,18,15.00
2009,08,13,09,19,15.10
2009,08,13,09,20,15.20
2009,08,13,09,21,15.30
2009,08,13,09,22,15.30
2009,08,13,09,23,15.40
2009,08,13,09,24,15.40
2009,08,13,09,25,15.40
2009,08,13,09,26,15.40
2009,08,13,09,27,15.40
2009,08,13,09,28,15.40
2009,08,13,09,29,15.50
2009,08,13,09,30,15.50
2009,08,13,09,31,15.50
2009,08,13,09,32,15.60
2009,08,13,09,33,15.50
2009,08,13,09,34,15.50
2009,08,13,09,35,15.50
2009,08,13,09,36,15.50
2009,08,13,09,37,15.50
2009,08,13,09,38,15.60
2009,08,13,09,39,15.60
2009,08,13,09,40,15.60
2009,08,13,09,41,15.70
2009,08,13,09,42,15.70
2009,08,13,09,43,15.70
2009,08,13,09,44,15.70
2009,08,13,09,45,15.70
2009,08,13,09,46,15.70
2009,08,13,09,47,15.70
2009,08,13,09,48,15.70
2009,08,13,09,49,15.70
2009,08,13,09,50,15.70
2009,08,13,09,51,15.70
2009,08,13,09,52,15.70
2009,08,13,09,53,15.70
2009,08,13,09,54,15.70
2009,08,13,09,55,15.70
2009,08,13,09,56,15.70
2009,08,13,09,57,15.70
2009,08,13,09,58,15.60
2009,08,13,09,59,15.60
2009,08,13,10,00,15.60
2009,08,13,10,01,15.60
2009,08,13,10,02,15.60
2009,08,13,10,03,15.60
2009,08,13,10,04,15.60
2009,08,13,10,05,15.60
2009,08,13,10,06,15.50
2009,08,13,10,07,15.50
2009,08,13,10,08,15.50
2009,08,13,10,09,15.50
2009,08,13,10,10,15.50
2009,08,13,10,11,15.40
2009,08,13,10,12,15.40
2009,08,13,10,13,15.40
2009,08,13,10,14,15.40
2009,08,13,10,15,15.40
2009,08,13,10,16,15.40
2009,08,13,10,17,15.50
2009,08,13,10,18,15.50
2009,08,13,10,19,15.50
2009,08,13,10,20,15.60
2009,08,13,10,21,15.60
2009,08,13,10,22,15.60
2009,08,13,10,23,15.60
2009,08,13,10,24,15.50
2009,08,13,10,25,15.40
2009,08,13,10,26,15.40
2009,08,13,10,27,15.40
2009,08,13,10,28,15.40
2009,08,13,10,29,15.40
2009,08,13,10,30,15.40
2009,08,13,10,31,15.40
2009,08,13,10,32,15.40
2009,08,13,10,33,15.40
2009,08,13,10,34,15.40
2009,08,13,10,35,15.50
2009,08,13,10,36,15.50
2009,08,13,10,37,15.50
2009,08,13,10,38,15.50
2009,08,13,10,39,15.40
2009,08,13,10,40,15.40
2009,08,13,10,41,15.40
2009,08,13,10,42,15.40
2009,08,13,10,43,15.40
2009,08,13,10,44,15.40
2009,08,13,10,45,15.40
2009,08,13,10,46,15.40
2009,08,13,10,47,15.40
2009,08,13,10,48,15.40
2009,08,13,10,49,15.50
2009,08,13,10,50,15.50
2009,08,13,10,51,15.50
2009,08,13,10,52,15.60
2009,08,13,10,53,15.60
2009,08,13,10,54,15.60
2009,08,13,10,55,15.60
2009,08,13,10,56,15.50
2009,08,13,10,57,15.50
2009,08,13,10,58,15.50
2009,08,13,10,59,15.50
2009,08,13,11,00,15.50
2009,08,13,11,01,15.60
2009,08,13,11,02,15.60
2009,08,13,11,03,15.60
2009,08,13,11,04,15.60
2009,08,13,11,05,15.70
2009,08,13,11,06,15.70
2009,08,13,11,07,15.70
2009,08,13,11,08,15.70
2009,08,13,11,09,15.80
2009,08,13,11,10,15.80
2009,08,13,11,11,15.80
2009,08,13,11,12,15.90
2009,08,13,11,13,15.90
2009,08,13,11,14,15.90
2009,08,13,11,15,15.90
2009,08,13,11,16,15.90
2009,08,13,11,17,15.90
2009,08,13,11,18,15.90
2009,08,13,11,19,15.90
2009,08,13,11,20,15.90
2009,08,13,11,21,15.80
2009,08,13,11,22,15.80
2009,08,13,11,23,15.80
2009,08,13,11,24,15.80
2009,08,13,11,25,15.80
2009,08,13,11,26,15.80
2009,08,13,11,27,15.80
2009,08,13,11,28,15.80
2009,08,13,11,29,15.80
2009,08,13,11,30,15.80
2009,08,13,11,31,15.80
2009,08,13,11,32,15.80
2009,08,13,11,33,15.90
2009,08,13,11,34,15.90
2009,08,13,11,35,15.90
2009,08,13,11,36,15.90
2009,08,13,11,37,15.90
2009,08,13,11,38,15.90
2009,08,13,11,39,15.90
2009,08,13,11,40,15.80
2009,08,13,11,41,15.80
2009,08,13,11,42,15.80
2009,08,13,11,43,15.80
2009,08,13,11,44,15.80
2009,08,13,11,45,15.80
2009,08,13,11,46,15.80
2009,08,13,11,47,15.80
2009,08,13,11,48,15.80
2009,08,13,11,49,15.80
2009,08,13,11,50,15.90
2009,08,13,11,51,15.90
2009,08,13,11,52,15.90
2009,08,13,11,53,15.90
2009,08,13,11,54,15.90
2009,08,13,11,55,15.90
2009,08,13,11,56,15.90
2009,08,13,11,57,15.90
2009,08,13,11,58,15.90
2009,08,13,11,59,15.90
2009,08,13,12,00,15.90
2009,08,13,12,01,15.90
2009,08,13,12,02,15.80
2009,08,13,12,03,15.80
2009,08,13,12,04,15.80
2009,08,13,12,05,15.80
2009,08,13,12,06,15.80
2009,08,13,12,07,15.80
2009,08,13,12,08,15.80
2009,08,13,12,09,15.80
2009,08,13,12,10,15.80
2009,08,13,12,11,15.80
2009,08,13,12,12,15.80
2009,08,13,12,13,15.80
2009,08,13,12,14,15.80
2009,08,13,12,15,15.80
2009,08,13,12,16,15.90
2009,08,13,12,17,15.90
2009,08,13,12,18,16.00
2009,08,13,12,19,16.00
2009,08,13,12,20,16.00
2009,08,13,12,21,16.00
2009,08,13,12,22,16.10
2009,08,13,12,23,16.10
2009,08,13,12,24,16.20
2009,08,13,12,25,16.20
2009,08,13,12,26,16.20
2009,08,13,12,27,16.20
2009,08,13,12,28,16.20
2009,08,13,12,29,16.20
2009,08,13,12,30,16.20
2009,08,13,12,31,16.20
2009,08,13,12,32,16.20
2009,08,13,12,33,16.20
2009,08,13,12,34,16.20
2009,08,13,12,35,16.30
2009,08,13,12,36,16.30
2009,08,13,12,37,16.30
2009,08,13,12,38,16.30
2009,08,13,12,39,16.40
2009,08,13,12,40,16.40
2009,08,13,12,41,16.40
2009,08,13,12,42,16.50
2009,08,13,12,43,16.40
2009,08,13,12,44,16.40
2009,08,13,12,45,16.40
2009,08,13,12,46,16.40
2009,08,13,12,47,16.30
2009,08,13,12,48,16.30
2009,08,13,12,49,16.30
2009,08,13,12,50,16.30
2009,08,13,12,51,16.30
2009,08,13,12,52,16.20
2009,08,13,12,53,16.20
2009,08,13,12,54,16.10
2009,08,13,12,55,16.10
2009,08,13,12,56,16.10
2009,08,13,12,57,16.00
2009,08,13,12,58,16.00
2009,08,13,12,59,15.90
2009,08,13,13,00,16.00
2009,08,13,13,01,16.00
2009,08,13,13,02,16.00
2009,08,13,13,03,16.00
2009,08,13,13,04,16.00
2009,08,13,13,05,16.10
2009,08,13,13,06,16.00
2009,08,13,13,07,16.00
2009,08,13,13,08,16.00
2009,08,13,13,09,16.10
2009,08,13,13,10,16.10
2009,08,13,13,11,16.10
2009,08,13,13,12,16.10
2009,08,13,13,13,16.10
2009,08,13,13,14,16.10
2009,08,13,13,15,16.10
2009,08,13,13,16,16.10
2009,08,13,13,17,16.20
2009,08,13,13,18,16.20
2009,08,13,13,19,16.20
2009,08,13,13,20,16.20
2009,08,13,13,21,16.20
2009,08,13,13,22,16.10
2009,08,13,13,23,16.10
2009,08,13,13,24,16.10
2009,08,13,13,25,16.10
2009,08,13,13,26,16.20
2009,08,13,13,27,16.20
2009,08,13,13,28,16.10
2009,08,13,13,29,16.10
2009,08,13,13,30,16.10
2009,08,13,13,31,16.10
2009,08,13,13,32,16.10
2009,08,13,13,33,16.00
2009,08,13,13,34,16.00
2009,08,13,13,35,16.00
2009,08,13,13,36,16.00
2009,08,13,13,37,16.00
2009,08,13,13,38,16.00
2009,08,13,13,39,15.90
2009,08,13,13,40,15.90
2009,08,13,13,41,15.90
2009,08,13,13,42,15.90
2009,08,13,13,43,15.90
2009,08,13,13,44,15.90
2009,08,13,13,45,15.90
2009,08,13,13,46,15.80
2009,08,13,13,47,15.80
2009,08,13,13,48,15.80
2009,08,13,13,49,15.80
2009,08,13,13,50,15.70
2009,08,13,13,51,15.70
2009,08,13,13,52,15.70
2009,08,13,13,53,15.70
2009,08,13,13,54,15.60
2009,08,13,13,55,15.60
2009,08,13,13,56,15.60
2009,08,13,13,57,15.60
2009,08,13,13,58,15.60
2009,08,13,13,59,15.50
2009,08,13,14,00,15.50
2009,08,13,14,01,15.40
2009,08,13,14,02,15.40
2009,08,13,14,03,15.30
2009,08,13,14,04,15.30
2009,08,13,14,05,15.20
2009,08,13,14,06,15.20
2009,08,13,14,07,15.20
2009,08,13,14,08,15.20
2009,08,13,14,09,15.20
2009,08,13,14,10,15.20
2009,08,13,14,11,15.20
2009,08,13,14,12,15.20
2009,08,13,14,13,15.20
2009,08,13,14,14,15.20
2009,08,13,14,15,15.30
2009,08,13,14,16,15.30
2009,08,13,14,17,15.30
2009,08,13,14,18,15.30
2009,08,13,14,19,15.30
2009,08,13,14,20,15.40
2009,08,13,14,21,15.40
2009,08,13,14,22,15.30
2009,08,13,14,23,15.30
2009,08,13,14,24,15.30
2009,08,13,14,25,15.20
2009,08,13,14,26,15.20
2009,08,13,14,27,15.20
2009,08,13,14,28,15.20
2009,08,13,14,29,15.30
2009,08,13,14,30,15.30
2009,08,13,14,31,15.30
2009,08,13,14,32,15.30
2009,08,13,14,33,15.40
2009,08,13,14,34,15.40
2009,08,13,14,35,15.40
2009,08,13,14,36,15.50
2009,08,13,14,37,15.50
2009,08,13,14,38,15.60
2009,08,13,14,39,15.60
2009,08,13,14,40,15.60
2009,08,13,14,41,15.70
2009,08,13,14,42,15.70
2009,08,13,14,43,15.70
2009,08,13,14,44,15.70
2009,08,13,14,45,15.70
2009,08,13,14,46,15.70
2009,08,13,14,47,15.60
2009,08,13,14,48,15.60
2009,08,13,14,49,15.50
2009,08,13,14,50,15.40
2009,08,13,14,51,15.40
2009,08,13,14,52,15.40
2009,08,13,14,53,15.30
2009,08,13,14,54,15.20
2009,08,13,14,55,15.20
2009,08,13,14,56,15.20
2009,08,13,14,57,15.20
2009,08,13,14,58,15.10
2009,08,13,14,59,15.10
2009,08,13,15,00,15.10
2009,08,13,15,01,15.00
2009,08,13,15,02,15.00
2009,08,13,15,03,15.00
2009,08,13,15,04,15.00
2009,08,13,15,05,15.00
2009,08,13,15,06,15.00
2009,08,13,15,07,14.90
2009,08,13,15,08,14.80
2009,08,13,15,09,14.70
2009,08,13,15,10,14.60
2009,08,13,15,11,14.50
2009,08,13,15,12,14.50
2009,08,13,15,13,14.50
2009,08,13,15,14,14.50
2009,08,13,15,15,14.60
2009,08,13,15,16,14.60
2009,08,13,15,17,14.60
2009,08,13,15,18,14.70
2009,08,13,15,19,14.70
2009,08,13,15,20,14.70
2009,08,13,15,21,14.70
2009,08,13,15,22,14.80
2009,08,13,15,23,14.80
2009,08,13,15,24,14.80
2009,08,13,15,25,14.80
2009,08,13,15,26,14.90
2009,08,13,15,27,14.90
2009,08,13,15,28,14.80
2009,08,13,15,29,14.70
2009,08,13,15,30,14.60
2009,08,13,15,31,14.50
2009,08,13,15,32,14.30
2009,08,13,15,33,14.20
2009,08,13,15,34,14.10
2009,08,13,15,35,13.90
2009,08,13,15,36,13.80
2009,08,13,15,37,13.70
2009,08,13,15,38,13.60
2009,08,13,15,39,13.40
2009,08,13,15,40,13.30
2009,08,13,15,41,13.20
2009,08,13,15,42,13.10
2009,08,13,15,43,13.00
2009,08,13,15,44,13.00
2009,08,13,15,45,12.90
2009,08,13,15,46,12.80
2009,08,13,15,47,12.80
2009,08,13,15,48,12.70
2009,08,13,15,49,12.60
2009,08,13,15,50,12.60
2009,08,13,15,51,12.50
2009,08,13,15,52,12.40
2009,08,13,15,53,12.40
2009,08,13,15,54,12.30
2009,08,13,15,55,12.30
2009,08,13,15,56,12.30
2009,08,13,15,57,12.20
2009,08,13,15,58,12.20
2009,08,13,15,59,12.20
2009,08,13,16,00,12.20
2009,08,13,16,01,12.10
2009,08,13,16,02,12.10
2009,08,13,16,03,12.10
2009,08,13,16,04,12.10
2009,08,13,16,05,12.10
2009,08,13,16,06,12.10
2009,08,13,16,07,12.20
2009,08,13,16,08,12.20
2009,08,13,16,09,12.10
2009,08,13,16,10,12.20
2009,08,13,16,11,12.20
2009,08,13,16,12,12.20
2009,08,13,16,13,12.20
2009,08,13,16,14,12.20
2009,08,13,16,15,12.20
2009,08,13,16,16,12.20
2009,08,13,16,17,12.20
2009,08,13,16,18,12.20
2009,08,13,16,19,12.20
2009,08,13,16,20,12.20
2009,08,13,16,21,12.20
2009,08,13,16,22,12.20
2009,08,13,16,23,12.20
2009,08,13,16,24,12.20
2009,08,13,16,25,12.20
2009,08,13,16,26,12.20
2009,08,13,16,27,12.20
2009,08,13,16,28,12.20
2009,08,13,16,29,12.20
2009,08,13,16,30,12.20
2009,08,13,16,31,12.20
2009,08,13,16,32,12.20
2009,08,13,16,33,12.20
2009,08,13,16,34,12.20
2009,08,13,16,35,12.20
2009,08,13,16,36,12.20
2009,08,13,16,37,12.20
2009,08,13,16,38,12.20
2009,08,13,16,39,12.20
2009,08,13,16,40,12.20
2009,08,13,16,41,12.20
2009,08,13,16,42,12.20
2009,08,13,16,43,12.20
2009,08,13,16,44,12.20
2009,08,13,16,45,12.20
2009,08,13,16,46,12.20
2009,08,13,16,47,12.30
2009,08,13,16,48,12.30
2009,08,13,16,49,12.30
2009,08,13,16,50,12.30
2009,08,13,16,51,12.30
2009,08,13,16,52,12.40
2009,08,13,16,53,12.40
2009,08,13,16,54,12.40
2009,08,13,16,55,12.40
2009,08,13,16,56,12.50
2009,08,13,16,57,12.50
2009,08,13,16,58,12.50
2009,08,13,16,59,12.60
2009,08,13,17,00,12.60
2009,08,13,17,01,12.60
2009,08,13,17,02,12.60
2009,08,13,17,03,12.60
2009,08,13,17,04,12.60
2009,08,13,17,05,12.60
2009,08,13,17,06,12.60
2009,08,13,17,07,12.50
2009,08,13,17,08,12.50
2009,08,13,17,09,12.50
2009,08,13,17,10,12.50
2009,08,13,17,11,12.50
2009,08,13,17,12,12.60
2009,08,13,17,13,12.60
2009,08,13,17,14,12.60
2009,08,13,17,15,12.60
2009,08,13,17,16,12.60
2009,08,13,17,17,12.70
2009,08,13,17,18,12.70
2009,08,13,17,19,12.70
2009,08,13,17,20,12.70
2009,08,13,17,21,12.70
2009,08,13,17,22,12.70
2009,08,13,17,23,12.70
2009,08,13,17,24,12.70
2009,08,13,17,25,12.70
2009,08,13,17,26,12.70
2009,08,13,17,27,12.80
2009,08,13,17,28,12.80
2009,08,13,17,29,12.80
2009,08,13,17,30,12.80
2009,08,13,17,31,12.90
2009,08,13,17,32,12.90
2009,08,13,17,33,12.90
2009,08,13,17,34,12.90
2009,08,13,17,35,12.90
2009,08,13,17,36,12.90
2009,08,13,17,37,13.00
2009,08,13,17,38,13.00
2009,08,13,17,39,13.00
2009,08,13,17,40,13.10
2009,08,13,17,41,13.10
2009,08,13,17,42,13.10
2009,08,13,17,43,13.20
2009,08,13,17,44,13.20
2009,08,13,17,45,13.20
2009,08,13,17,46,13.20
2009,08,13,17,47,13.20
2009,08,13,17,48,13.20
2009,08,13,17,49,13.30
2009,08,13,17,50,13.30
2009,08,13,17,51,13.30
2009,08,13,17,52,13.30
2009,08,13,17,53,13.30
2009,08,13,17,54,13.30
2009,08,13,17,55,13.40
2009,08,13,17,56,13.40
2009,08,13,17,57,13.40
2009,08,13,17,58,13.40
2009,08,13,17,59,13.40
2009,08,13,18,00,13.40
2009,08,13,18,01,13.50
2009,08,13,18,02,13.50
2009,08,13,18,03,13.50
2009,08,13,18,04,13.50
2009,08,13,18,05,13.50
2009,08,13,18,06,13.50
2009,08,13,18,07,13.50
2009,08,13,18,08,13.50
2009,08,13,18,09,13.50
2009,08,13,18,10,13.50
2009,08,13,18,11,13.50
2009,08,13,18,12,13.50
2009,08,13,18,13,13.50
2009,08,13,18,14,13.40
2009,08,13,18,15,13.40
2009,08,13,18,16,13.40
2009,08,13,18,17,13.40
2009,08,13,18,18,13.40
2009,08,13,18,19,13.50
2009,08,13,18,20,13.50
2009,08,13,18,21,13.50
2009,08,13,18,22,13.50
2009,08,13,18,23,13.50
2009,08,13,18,24,13.50
2009,08,13,18,25,13.50
2009,08,13,18,26,13.50
2009,08,13,18,27,13.50
2009,08,13,18,28,13.50
2009,08,13,18,29,13.50
2009,08,13,18,30,13.40
2009,08,13,18,31,13.40
2009,08,13,18,32,13.40
2009,08,13,18,33,13.40
2009,08,13,18,34,13.30
2009,08,13,18,35,13.30